{"data":{"norad_id":40024,"epoch":"2026-05-25T01:40:05.945664Z","epoch_age_seconds":79337,"freshness":"FRESH","line1":"1 40024U 14033Q   26145.06951326  .00014805  00000+0  50280-3 0  9996","line2":"2 40024  98.0745 175.4223 0001985 243.9457 116.1578 15.30608434650448","mean_motion":15.30608434,"eccentricity":0.0001985,"inclination_deg":98.0745,"raan_deg":175.4223,"arg_perigee_deg":243.9457,"mean_anomaly_deg":116.1578,"bstar":0.0005028,"rev_number":65044,"period_min":94.080234239713,"perigee_km":472.63568193999,"apogee_km":475.35597867362,"semimajor_km":6852.1328303068,"source":"CELESTRAK","updated_at":"2026-05-25T13:38:25.521008Z"}}